Regional Weather Roundup
Issued by NWS

Home | Current Version | Previous Version | Text Only | Print | Product List | Glossary Off
Versions: 1 2 3 4 5 6 7 8 9 10 11 12 13 14 15 16 17 18 19 20 21 22 23 24 25 26 27 28 29 30 31 32 33 34 35 36 37 38 39 40 41 42 43 44 45 46 47 48 49 50

000
ASUS43 KMPX 300001
RWRMN
WEATHER ROUNDUP FOR MINNESOTA
NATIONAL WEATHER SERVICE TWIN CITIES/CHANHASSEN MN
700 PM CDT WED OCT 29 2014


NOTE: "FAIR" INDICATES FEW OR NO CLOUDS BELOW 12,000 FEET WITH NO
SIGNIFICANT WEATHER AND/OR OBSTRUCTIONS TO VISIBILITY. N/A MEANS
CURRENT SKY AND/OR WEATHER CONDITIONS ARE NOT AVAILABLE.

MNZ060>063-068>070-300100-
   Twin Cities Metro

CITY           SKY/WX    TMP DP  RH WIND       PRES   REMARKS
TWIN CITIES    MOCLDY    41  31  67 S5        30.10S
6HR MIN TEMP:  40; 6HR MAX TEMP:  42;

ST PAUL        CLEAR     38  33  82 S3        30.11F
CRYSTAL        PTCLDY    37  30  75 CALM      30.09S
BLAINE         MOCLDY    39  34  81 CALM      30.09F
LAKEVILLE      CLEAR     36  30  80 CALM      30.10S
EDEN PRAIRIE   PTCLDY    39  31  72 SW3       30.09S
6HR MIN TEMP:  38; 6HR MAX TEMP:  44;

SOUTH ST PAUL  CLEAR     40  31  72 CALM      30.10S
LAKE ELMO      MOCLDY    34  32  93 CALM      30.11S
$$
MNZ001>005-007-008-013>017-022>024-027-028-300100-
   Northwest Minnesota

CITY           SKY/WX    TMP DP  RH WIND       PRES   REMARKS
BEMIDJI        CLOUDY    34  30  85 S5        30.04S WCI  30
HALLOCK        CLOUDY    37  30  75 SE7       30.01F
ROSEAU         CLOUDY    37  30  75 SW3       30.03R
WARROAD        CLOUDY    36  32  87 SW3       30.04R
THIEF RVR FALL CLOUDY    36  30  80 S6        30.03S
CROOKSTON      CLOUDY    39  30  70 S7        30.03F
FOSSTON        CLOUDY    34  30  86 SE3       30.04F
DETROIT LAKES  MOCLDY    36  32  87 S5        30.05S
MOORHEAD       CLOUDY    41  32  70 SE6       30.03F
PARK RAPIDS    CLOUDY    35  29  78 SW6       30.05R WCI  30
MAHNOMEN       CLOUDY    35  30  82 S3        30.04S
$$
MNZ006-009>011-018-025>026-300100-
   North Central Minnesota

CITY           SKY/WX    TMP DP  RH WIND       PRES   REMARKS
BAUDETTE       CLOUDY    36  33  89 S5        30.03S
FLAG ISLAND    CLOUDY    37  34  87 SW5       30.02R
INTL FALLS     CLOUDY    36  34  92 SW3       30.03S
6HR MIN TEMP:  36; 6HR MAX TEMP:  39; 6HR PCP: TRACE;

WASKISH        CLOUDY    36  32  87 CALM      30.04S
BIG FORK       MIX PCPN  37  34  87 SW3       30.05R
LONGVILLE      CLOUDY    36  32  87 SW5       30.05R
GRAND RAPIDS   CLOUDY    36  30  80 S8        30.04F
CRANE LAKE     CLOUDY    36  36 100 CALM      30.06R
ORR            CLOUDY    36  32  87 CALM      30.02S
COOK           CLOUDY    36  36 100 CALM      30.05R FOG
WALKER         CLOUDY    35  30  82 SW5       30.04R WCI  31
$$
MNZ012-019>021-037-300100-
   Northeast Minnesota

CITY           SKY/WX    TMP DP  RH WIND       PRES   REMARKS
DULUTH         CLOUDY    39  32  76 W7        30.04S
6HR MIN TEMP:  39; 6HR MAX TEMP:  42;

ELY            CLOUDY    37  34  87 CALM      30.03S
HIBBING        CLOUDY    37  31  78 SW3       30.04S
EVELETH        CLOUDY    36  34  93 SW8       30.05S
DULUTH HARBOR  CLOUDY    43  36  75 SW7       30.08S
TWO HARBORS    CLOUDY    43 N/A N/A W6        30.04R
SILVER BAY     CLOUDY    41  36  81 CALM      30.03S
GRAND MARAIS     N/A     43  34  70 W5        30.05R
G MARAIS ARPRT CLOUDY    36  30  80 CALM      30.02S
$$
MNZ029>031-032-039>041-046>048-054>057-064-300100-
   West Central Minnesota

CITY           SKY/WX    TMP DP  RH WIND       PRES   REMARKS
FERGUS FALLS   PTCLDY    36  28  75 S5        30.07R
WHEATON        PTCLDY    36  30  80 SE9       30.05S
MORRIS         PTCLDY    36  30  80 SE6       30.04F
ALEXANDRIA     MOCLDY    35  29  78 S3        30.06F
ELBOW LAKE     FAIR      35  31  85 SE5       30.04F WCI  31
WADENA         CLOUDY    36  30  80 CALM      30.05R
GLENWOOD       MOCLDY    36  30  80 S3        30.07S
APPLETON       PTCLDY    37  32  81 E7        30.04F
BENSON         PTCLDY    37  30  75 S3        30.06S
ORTONVILLE     PTCLDY    39  30  70 E8        30.03F
MADISON        PTCLDY    43  36  75 E7        30.04F
WILLMAR        FAIR      37  30  75 E3        30.08S
$$
MNZ033>034-036-042>043-049>051-058-059-300100-
   Central Minnesota

CITY           SKY/WX    TMP DP  RH WIND       PRES   REMARKS
ST CLOUD       CLOUDY    41  32  70 SW6       30.08S
6HR MIN TEMP:  40; 6HR MAX TEMP:  43;

SAUK CENTRE    FAIR      36  31  83 SW5       30.07F
PAYNESVILLE    CLOUDY    35  30  83 CALM      30.08S
AITKIN         CLOUDY    39  32  75 CALM      30.04F
PINE RIVER     CLOUDY    36  30  80 S3        30.09R
BRAINERD       CLOUDY    37  31  78 S5        30.06F
STAPLES        CLOUDY    36  30  80 SW3       30.06S
LONG PRAIRIE   CLOUDY    36  32  87 CALM      30.07S
LITTLE FALLS   CLOUDY    37  30  75 S3        30.08R
LITCHFIELD     MOCLDY    37  34  87 CALM      30.08F
BUFFALO        MOCLDY    38  32  77 CALM      30.10S
MAPLE LAKE     MOCLDY    38  33  81 CALM      30.10S
$$
MNZ037-044-045-052-053-300100-
   East Central Minnesota

CITY           SKY/WX    TMP DP  RH WIND       PRES   REMARKS
PRINCETON      CLOUDY    41  34  75 CALM      30.09S
MORA           CLOUDY    36  32  87 CALM      30.10S
CAMBRIDGE      CLOUDY    41  30  65 CALM      30.08R
RUSH CITY      CLOUDY    38  32  78 CALM      30.09S
MOOSE LAKE     CLOUDY    37  32  81 W5        30.05S
HINCKLEY       CLOUDY    37  34  87 CALM      30.08S
CLOQUET        CLOUDY    37  30  75 W7        30.06S
MCGREGOR       CLOUDY    36  32  87 SW3       30.07S
$$
MNZ071>073-080-081-089-090-097-098-300100-
   Southwest Minnesota

CITY           SKY/WX    TMP DP  RH WIND       PRES   REMARKS
MONTEVIDEO     PTCLDY    37  32  81 SE5       30.06F
GRANITE FALLS  PTCLDY    40  30  68 E3        30.07F
CANBY          MOCLDY    43  33  69 SE3       30.05S
MARSHALL       PTCLDY    46  28  49 CALM      30.04S
REDWOOD FALLS  MOCLDY    44  29  55 E5        30.06F
OLIVIA         MOCLDY    39  30  70 CALM      30.06S
PIPESTONE      PTCLDY    41  28  60 SW5       30.04S
WINDOM         CLEAR     45  28  53 CALM      30.07R
WORTHINGTON    CLEAR     43  28  56 S6        30.06S
JACKSON        CLEAR     45  28  53 CALM      30.08R
TRACY          PTCLDY    42  31  63 CALM      30.05F
SLAYTON        PTCLDY    43  28  56 CALM      30.05F
$$
MNZ065>067-074>077-082>085-091>093-300100-
   South Central Minnesota

CITY           SKY/WX    TMP DP  RH WIND       PRES   REMARKS
MANKATO        CLEAR     41  27  56 E6        30.09S
NEW ULM        PTCLDY    39  30  70 SE3       30.07F
ST JAMES       CLEAR     41  30  65 CALM      30.09S
FAIRMONT       CLEAR     43  27  52 S3        30.08S
GLENCOE        PTCLDY    38  32  81 CALM      30.08S
FARIBAULT      CLEAR     32  28  86 CALM      30.11R
OWATONNA       CLEAR     30  27  86 CALM      30.10S
WASECA         CLEAR     34  27  75 SE3       30.11S
ALBERT LEA     CLEAR     39  32  75 CALM      30.09S
$$
MNZ078>079-086>088-094>096-300100-
   Southeast Minnesota

CITY           SKY/WX    TMP DP  RH WIND       PRES   REMARKS
ROCHESTER      CLEAR     38  30  73 CALM      30.11S
6HR MIN TEMP:  38; 6HR MAX TEMP:  45;

RED WING         N/A     37  30  75 CALM      30.10S
STANTON        CLEAR     37  31  78 CALM      30.09S
DODGE CENTER   CLEAR     36  30  80 CALM      30.10S
WINONA         CLEAR     41  32  70 CALM      30.12S
AUSTIN         CLEAR     37  30  75 CALM      30.10S
PRESTON        CLEAR     40  31  70 W3        30.10F
$$
ABBREVIATIONS USED IN REMARKS
   TC - TEMPERATURES IN CELSIUS
  WCI - WIND CHILL INDEX
   HX - HEAT INDEX
  VSB - VISIBILITY
$$



USA.gov is the U.S. government's official web portal to all federal, state and local government web resources and services.